Content
SEND FEEDBACK

Daily
Averages
Monthly
Summary
United States of America

SUNDANCE, WYOMING


Home > North America > United States > Wyoming
Elevation: 4908 feet     Latitude: 44 24N     Longitude: 104 21W

WEATHER
 
SELECT A DAY
Number of Records: 227,596;   Date Range: 1/2/95 - 8/30/14
 
SHARE

PRINT THIS DATA

[ ← Previous Day ]
WEATHER ALMANAC - JULY 21, 2013
[ Next Day → ]
[ °C ]   °F
Weather ElementAverageHighLow
Temperature74.8 °F89.6 °F (4:55 pm)57.2 °F (5:55 am)
Dewpoint54.4 °F62.6 °F (9:55 am)39.2 °F (3:35 pm)
Humidity53.3 %88 % (12:35 am)18 % (3:35 pm)
Barometer29.90 in29.99 in (12:35 am)29.83 in (6:15 pm)
Wind Speed4 mph10.4 mph (9:35 pm)
Wind Gust18.4 mph (9:35 pm)
Weather ElementAverage
Visibility10 mi
Wind DirectionSSE (147.4 °)

Weather ElementTotal
Precipitation0.02 in
Cooling Degree Days8.4 (Base 65)
Growing Degree Days23.4 (Base 50)
Averaged from 69 records on July 21, 2013
WEATHER CONDITIONS BREAKOUT
WIND DIRECTION BREAKOUT
WEATHER BY HOUR - JULY 21, 2013
[ °C ]   °F
Local TimeTemperatureDewpointHumidityBarometerVisibilityWind DirectionWind SpeedGust SpeedPrecipitationEventsConditions
12:35 AM62.6 °F59.0 °F88 %29.99 in10.0 miSE (140°)4.6 mph0.01 inThunderstorm
12:55 AM64.4 °F59.0 °F83 %29.98 in10.0 miESE (120°)6.9 mph0.01 inThunderstorm
1:15 AM64.4 °F59.0 °F83 %29.97 in10.0 miEast (90°)8.1 mph
1:35 AM66.2 °F59.0 °F78 %29.95 in10.0 miENE (70°)4.6 mph
1:55 AM66.2 °F59.0 °F78 %29.95 in10.0 miNorth (360°)5.8 mph
2:15 AM66.2 °F57.2 °F73 %29.94 in10.0 miSSW (200°)9.2 mph
2:35 AM66.2 °F57.2 °F73 %29.93 in10.0 miNNE (30°)6.9 mph
2:55 AM66.2 °F55.4 °F68 %29.93 in10.0 miWSW (240°)5.8 mph
3:15 AM68.0 °F55.4 °F64 %29.93 in10.0 miCalm
3:35 AM66.2 °F55.4 °F68 %29.92 in10.0 miNNE (20°)4.6 mph
3:55 AM66.2 °F53.6 °F64 %29.91 in10.0 miCalmThunderstorm
4:15 AM66.2 °F53.6 °F64 %29.91 in10.0 miCalm
4:35 AM64.4 °F55.4 °F73 %29.91 in10.0 miCalm
4:55 AM60.8 °F53.6 °F77 %29.91 in10.0 miSW (230°)4.6 mph
5:15 AM59.0 °F53.6 °F82 %29.91 in10.0 miSW (220°)4.6 mph
5:35 AM59.0 °F55.4 °F88 %29.91 in10.0 miWest (280°)3.5 mph
5:55 AM57.2 °F53.6 °F88 %29.90 in10.0 miSSW (210°)3.5 mph
6:15 AM59.0 °F53.6 °F82 %29.90 in10.0 miSSW (210°)3.5 mph
6:35 AM59.0 °F53.6 °F82 %29.90 in10.0 miSSW (200°)6.9 mph
6:55 AM60.8 °F55.4 °F82 %29.90 in10.0 miCalm
7:15 AM62.6 °F55.4 °F77 %29.91 in10.0 miCalm
7:35 AM66.2 °F57.2 °F73 %29.91 in10.0 miSSW (200°)3.5 mph
7:55 AM68.0 °F55.4 °F64 %29.91 in10.0 miCalm
8:15 AM69.8 °F57.2 °F64 %29.91 in10.0 miCalm
8:35 AM71.6 °F57.2 °F60 %29.91 in10.0 miCalm
8:55 AM73.4 °F57.2 °F57 %29.91 in10.0 miCalm
9:15 AM73.4 °F55.4 °F53 %29.91 in10.0 miCalm
9:35 AM75.2 °F57.2 °F53 %29.91 in10.0 miCalm
9:55 AM73.4 °F62.6 °F69 %29.91 in10.0 miNW (310°)8.1 mph
10:15 AM75.2 °F62.6 °F65 %29.91 in10.0 miNW (310°)5.8 mph
10:35 AM75.2 °F55.4 °F50 %29.91 in10.0 miWNW (300°)4.6 mph
10:55 AM77.0 °F59.0 °F54 %29.90 in10.0 miCalm
11:15 AM77.0 °F60.8 °F57 %29.90 in10.0 miNE (40°)3.5 mph
11:35 AM78.8 °F60.8 °F54 %29.90 in10.0 miENE (70°)3.5 mph
12:35 PM80.6 °F59.0 °F48 %29.89 in10.0 miENE (70°)6.9 mph
12:55 PM82.4 °F59.0 °F45 %29.89 in10.0 miNE (50°)5.8 mph
1:15 PM82.4 °F57.2 °F42 %29.88 in10.0 miENE (60°)5.8 mph
1:35 PM82.4 °F59.0 °F45 %29.88 in10.0 miENE (70°)4.6 mph
1:55 PM82.4 °F59.0 °F45 %29.88 in10.0 miENE (60°)4.6 mph
2:15 PM82.4 °F60.8 °F48 %29.87 in10.0 miENE (70°)4.6 mph
2:35 PM84.2 °F60.8 °F45 %29.87 in10.0 miCalm
2:55 PM84.2 °F59.0 °F42 %29.87 in10.0 miNNW (340°)3.5 mph
3:15 PM86.0 °F57.2 °F37 %29.86 in10.0 miCalmRainLight Rain
3:35 PM87.8 °F39.2 °F18 %29.86 in10.0 miNNE (20°)3.5 mph
3:55 PM87.8 °F48.2 °F25 %29.86 in10.0 miNorth (360°)9.2 mph
4:15 PM87.8 °F50.0 °F27 %29.85 in10.0 miNNW (340°)5.8 mph
4:35 PM87.8 °F50.0 °F27 %29.85 in10.0 miNW (320°)3.5 mph
4:55 PM89.6 °F46.4 °F22 %29.85 in10.0 miNW (310°)5.8 mph
5:15 PM89.6 °F46.4 °F22 %29.85 in10.0 miWNW (300°)9.2 mph
5:35 PM89.6 °F46.4 °F22 %29.84 in10.0 miWNW (290°)4.6 mph
5:55 PM89.6 °F48.2 °F24 %29.84 in10.0 miNW (310°)9.2 mph
6:15 PM89.6 °F46.4 °F22 %29.83 in10.0 miNW (310°)5.8 mph
6:35 PM84.2 °F50.0 °F30 %29.84 in10.0 miNW (320°)5.8 mph
6:55 PM86.0 °F50.0 °F29 %29.84 in10.0 miNW (310°)5.8 mph
7:15 PM86.0 °F53.6 °F33 %29.84 in10.0 miNW (310°)4.6 mph
7:35 PM86.0 °F53.6 °F33 %29.84 in10.0 miWNW (300°)4.6 mph
7:55 PM84.2 °F53.6 °F35 %29.84 in10.0 miNW (310°)3.5 mph
8:15 PM82.4 °F53.6 °F37 %29.85 in10.0 miCalm
8:35 PM75.2 °F59.0 °F57 %29.86 in10.0 miSSW (210°)5.8 mph
8:55 PM75.2 °F55.4 °F50 %29.87 in10.0 miNorth (360°)9.2 mph
9:15 PM80.6 °F51.8 °F37 %29.88 in10.0 miNorth (10°)6.9 mph
9:35 PM82.4 °F44.6 °F26 %29.91 in10.0 miNNW (330°)10.4 mph18.4 mph
9:55 PM77.0 °F48.2 °F36 %29.92 in10.0 miNorth (360°)9.2 mph
10:15 PM75.2 °F48.2 °F38 %29.93 in10.0 miCalm
10:35 PM69.8 °F53.6 °F56 %29.94 in10.0 miSW (220°)5.8 mph
10:55 PM73.4 °F50.0 °F44 %29.95 in10.0 miCalm
11:15 PM71.6 °F48.2 °F43 %29.96 in10.0 miCalm
11:35 PM69.8 °F50.0 °F49 %29.97 in10.0 miCalm
11:55 PM69.8 °F50.0 °F49 %29.98 in10.0 miCalm
Hourly data recorded from KSPF, located miles away from Sundance, Wyoming







STORIES FROM OUR PARTNERS